This is the latest recevied weather packets stored in our database for station/object KJ4YLO. If no packets are shown the sender has not sent any weather packets the latest 10 day(s).
| Time | Temp. | Humidity | Pressure | Rain* | Wind** | Luminosity | Snow |
|---|---|---|---|---|---|---|---|
| 1777380376 | 12.22° C | 98% | 1025.6 hPa | 0 mm | - | 7 W/m² | - |
| 1777380072 | 12.22° C | 98% | 1026.4 hPa | 0 mm | - | 8 W/m² | - |
| 1777379768 | 12.22° C | 98% | 1025.9 hPa | 0 mm | - | 9 W/m² | - |
| 1777379464 | 12.22° C | 98% | 1025.6 hPa | 0 mm | - | 6 W/m² | - |
| 1777379158 | 12.22° C | 97% | 1025.6 hPa | 0 mm | - | 2 W/m² | - |
| 1777378854 | 12.22° C | 97% | 1025.6 hPa | 0 mm | - | 2 W/m² | - |
| 1777378550 | 12.22° C | 97% | 1026.4 hPa | 0 mm | - | 1 W/m² | - |
| 1777378247 | 12.22° C | 97% | 1026.7 hPa | 1.78 mm | - | 0 W/m² | - |
| 1777377945 | 12.22° C | 96% | 1026.7 hPa | 3.05 mm | - | 0 W/m² | - |
| 1777377645 | 12.22° C | 96% | 1027.1 hPa | 3.05 mm | - | 0 W/m² | - |
| 1777377340 | 12.78° C | 96% | 1027.1 hPa | 10.92 mm | - | 0 W/m² | - |
| 1777377037 | 12.22° C | 96% | 1028.1 hPa | 8.89 mm | - | 0 W/m² | - |
| 1777376734 | 12.22° C | 96% | 1028.8 hPa | 0 mm | - | 0 W/m² | - |
| 1777376432 | 12.22° C | 94% | 1024.3 hPa | 0 mm | - | 0 W/m² | - |
| 1777376127 | 12.22° C | 93% | 1024.3 hPa | 0 mm | - | 0 W/m² | - |
| 1777375821 | 12.22° C | 93% | 1023.6 hPa | 1.27 mm | - | 3 W/m² | - |
| 1777375516 | 12.22° C | 91% | 1023.6 hPa | 1.27 mm | - | 2 W/m² | - |
| 1777375213 | 12.22° C | 90% | 1022.9 hPa | 4.83 mm | - | 0 W/m² | - |
| 1777374908 | 12.22° C | 90% | 1022.1 hPa | 6.6 mm | - | 0 W/m² | - |
| 1777374604 | 12.78° C | 89% | 1023.9 hPa | 3.05 mm | - | 0 W/m² | - |
| 1777374301 | 12.78° C | 89% | 1024.3 hPa | 1.27 mm | - | 0 W/m² | - |
| 1777373996 | 12.22° C | 89% | 1023.9 hPa | 0 mm | - | 0 W/m² | - |
| 1777373694 | 12.22° C | 89% | 1023.9 hPa | 0 mm | - | 0 W/m² | - |
| 1777373391 | 12.22° C | 90% | 1023.9 hPa | 0 mm | - | 0 W/m² | - |
| 1777373085 | 12.22° C | 90% | 1024.6 hPa | 0 mm | - | 0 W/m² | - |
* Rain latest hour (hover to see other rain measurements)
** Current wind speed in m/s (hover to see current wind gust speed)